This is the latest recevied weather packets stored in our database for station/object KI5NXU. If no packets are shown the sender has not sent any weather packets the latest 10 day(s).
| Time | Temp. | Humidity | Pressure | Rain* | Wind** | Luminosity | Snow |
|---|---|---|---|---|---|---|---|
| 1777742821 | 22.22° C | 47% | 1021.5 hPa | 0 mm | - | 740 W/m² | - |
| 1777742212 | 21.67° C | 50% | 1021.6 hPa | 0 mm | - | 776 W/m² | - |
| 1777741607 | 21.11° C | 51% | 1021.6 hPa | 0 mm | - | 783 W/m² | - |
| 1777740393 | 20.56° C | 54% | 1021.7 hPa | 0 mm | - | 818 W/m² | - |
| 1777739786 | 20.56° C | 54% | 1021.8 hPa | 0 mm | - | 774 W/m² | - |
| 1777739180 | 20° C | 57% | 1021.9 hPa | 0 mm | - | 815 W/m² | - |
| 1777738877 | 20° C | 59% | 1021.8 hPa | 0 mm | - | 822 W/m² | - |
| 1777738574 | 20° C | 62% | 1021.6 hPa | 0 mm | - | 825 W/m² | - |
| 1777738271 | 20° C | 60% | 1021.8 hPa | 0 mm | - | 807 W/m² | - |
| 1777737969 | 20° C | 60% | 1021.7 hPa | 0 mm | - | 769 W/m² | - |
| 1777737366 | 19.44° C | 63% | 1021.8 hPa | 0 mm | - | 743 W/m² | - |
| 1777737062 | 19.44° C | 64% | 1021.4 hPa | 0 mm | - | 739 W/m² | - |
| 1777736130 | 18.89° C | 67% | 1021.6 hPa | 0 mm | - | 663 W/m² | - |
| 1777735827 | 18.89° C | 67% | 1021.9 hPa | 0 mm | - | 651 W/m² | - |
| 1777735525 | 18.33° C | 68% | 1021.6 hPa | 0 mm | - | 634 W/m² | - |
| 1777735222 | 18.33° C | 70% | 1021.9 hPa | 0 mm | - | 626 W/m² | - |
| 1777734919 | 17.78° C | 70% | 1021.8 hPa | 0 mm | - | 633 W/m² | - |
| 1777734616 | 17.78° C | 71% | 1021.8 hPa | 0 mm | - | 600 W/m² | - |
| 1777734314 | 17.22° C | 72% | 1021.6 hPa | 0 mm | - | 600 W/m² | - |
| 1777734009 | 17.22° C | 73% | 1021.7 hPa | 0 mm | - | 540 W/m² | - |
| 1777733706 | 17.22° C | 75% | 1021.6 hPa | 0 mm | - | 505 W/m² | - |
| 1777733403 | 16.67° C | 75% | 1021.6 hPa | 0 mm | - | 493 W/m² | - |
| 1777733099 | 17.22° C | 75% | 1021.6 hPa | 0 mm | - | 476 W/m² | - |
| 1777732795 | 16.67° C | 76% | 1021.6 hPa | 0 mm | - | 414 W/m² | - |
| 1777732492 | 16.67° C | 78% | 1021.7 hPa | 0 mm | - | 364 W/m² | - |
* Rain latest hour (hover to see other rain measurements)
** Current wind speed in m/s (hover to see current wind gust speed)